Date String (YYYY-MM-DD hh:mm:ss) UTC,Instrument flags,Ambient pressure (hPa),Sample flow (lpm),Bypass flow (lpm),Sample temperature (°C),Ambient temperature (°C),ASC tube jacket temperature (°C),LED temperature (°C),Box temperature (°C),Sample RH (%),Span deviation,Mass concentration (μg/m³),Mass concentration (μg/m³),Mass concentration (μg/m³)
DateTimeUTC,F1_M11,P_M11,Q1_M11,Q2_M11,T1_M11,T2_M11,T3_M11,T4_M11,T5_M11,U1_M11,ZSPAN_M11,X2_M11,X0_M11,X1_M11
2021-12-24 11:00:00,,0808.5,5.00,0.00,24.8,23.9,00.0,34.0,26.4,21.1,0000.0,0000.18,0000.53,0000.07
2021-12-24 11:01:00,,0808.6,4.99,0.00,24.7,23.9,00.0,33.9,26.4,21.0,0000.0,0000.18,0000.51,0000.07
2021-12-24 11:02:00,,0808.6,5.01,0.00,24.7,23.9,00.0,33.9,26.4,20.9,0000.0,0000.18,0000.53,0000.07
2021-12-24 11:03:00,,0808.5,5.00,0.00,24.7,23.9,00.0,33.9,26.4,20.8,0000.0,0000.19,0000.59,0000.07
2021-12-24 11:04:00,,0808.4,4.99,0.00,24.7,23.9,00.0,33.9,26.3,20.8,0000.0,0000.19,0000.67,0000.07
2021-12-24 11:05:00,,0808.6,5.00,0.00,24.7,23.9,00.0,33.9,26.3,21.1,0000.0,0000.18,0000.63,0000.07
2021-12-24 11:06:00,,0808.6,5.00,0.00,24.6,23.9,00.0,33.8,26.3,21.2,0000.0,0000.17,0000.53,0000.07
2021-12-24 11:07:00,,0808.6,5.01,0.00,24.6,23.9,00.0,33.8,26.4,21.3,0000.0,0000.16,0000.47,0000.07
2021-12-24 11:08:00,,0808.6,5.01,0.00,24.6,23.9,00.0,33.8,26.4,21.3,0000.0,0000.16,0000.46,0000.07
2021-12-24 11:09:00,,0808.5,4.99,0.00,24.7,23.9,00.0,33.8,26.4,21.4,0000.0,0000.15,0000.44,0000.07
2021-12-24 11:10:00,,0808.6,5.00,0.00,24.7,23.9,00.0,33.8,26.5,21.5,0000.0,0000.13,0000.37,0000.07
2021-12-24 11:11:00,,0808.6,5.01,0.00,24.7,24.0,00.0,33.8,26.5,21.6,0000.0,0000.12,0000.35,0000.07
2021-12-24 11:12:00,,0808.6,5.00,0.00,24.7,24.0,00.0,33.8,26.5,21.5,0000.0,0000.12,0000.34,0000.07
2021-12-24 11:13:00,,0808.7,4.99,0.00,24.7,24.0,00.0,33.8,26.5,21.3,0000.0,0000.12,0000.33,0000.07
2021-12-24 11:14:00,,0808.7,5.02,0.00,24.7,24.0,00.0,33.8,26.5,21.2,0000.0,0000.11,0000.25,0000.07
2021-12-24 11:15:00,,0808.8,4.99,0.00,24.7,24.0,00.0,33.7,26.5,21.3,0000.0,0000.11,0000.19,0000.07
2021-12-24 11:16:00,,0808.7,5.00,0.00,24.7,24.0,00.0,33.8,26.5,21.4,0000.0,0000.12,0000.20,0000.07
2021-12-24 11:17:00,,0808.7,5.00,0.00,24.7,24.0,00.0,33.7,26.5,21.4,0000.0,0000.13,0000.22,0000.07
2021-12-24 11:18:00,,0808.8,5.00,0.00,24.7,24.0,00.0,33.7,26.5,21.4,0000.0,0000.12,0000.21,0000.07
2021-12-24 11:19:00,,0808.8,5.01,0.00,24.7,24.0,00.0,33.7,26.5,21.0,0000.0,0000.12,0000.21,0000.07
2021-12-24 11:20:00,,0808.9,4.99,0.00,24.7,24.0,00.0,33.7,26.5,20.9,0000.0,0000.13,0000.23,0000.07
2021-12-24 11:21:00,,0808.9,5.00,0.00,24.7,24.0,00.0,33.7,26.5,20.9,0000.0,0000.11,0000.19,0000.06
2021-12-24 11:22:00,,0808.9,5.00,0.00,24.7,24.0,00.0,33.7,26.5,20.9,0000.0,0000.11,0000.17,0000.06
2021-12-24 11:23:00,,0808.8,5.01,0.00,24.7,24.0,00.0,33.7,26.4,21.0,0000.0,0000.12,0000.19,0000.06
2021-12-24 11:24:00,,0808.8,4.99,0.00,24.7,24.0,00.0,33.7,26.4,20.6,0000.0,0000.11,0000.18,0000.07
2021-12-24 11:25:00,,0808.8,5.00,0.00,24.7,24.0,00.0,33.7,26.4,20.6,0000.0,0000.11,0000.18,0000.07
2021-12-24 11:26:00,,0808.8,5.01,0.00,24.7,24.0,00.0,33.7,26.4,20.9,0000.0,0000.11,0000.18,0000.06
2021-12-24 11:27:00,,0808.8,4.99,0.00,24.7,24.0,00.0,33.7,26.4,21.0,0000.0,0000.10,0000.18,0000.06
2021-12-24 11:28:00,,0808.9,5.00,0.00,24.7,23.9,00.0,33.7,26.4,21.2,0000.0,0000.09,0000.16,0000.06
2021-12-24 11:29:00,,0808.9,4.99,0.00,24.7,24.0,00.0,33.7,26.5,21.1,0000.0,0000.09,0000.15,0000.06
2021-12-24 11:30:00,,0808.9,5.01,0.00,24.7,24.0,00.0,33.7,26.5,21.2,0000.0,0000.09,0000.15,0000.06
2021-12-24 11:31:00,,0808.9,5.00,0.00,24.7,24.0,00.0,33.7,26.5,20.9,0000.0,0000.08,0000.13,0000.06
2021-12-24 11:32:00,,0808.9,5.01,0.00,24.7,24.0,00.0,33.7,26.5,20.8,0000.0,0000.08,0000.13,0000.06
2021-12-24 11:33:00,,0808.9,4.99,0.00,24.7,24.0,00.0,33.7,26.5,20.9,0000.0,0000.09,0000.14,0000.07
2021-12-24 11:34:00,,0808.9,5.00,0.00,24.7,24.0,00.0,33.7,26.5,20.8,0000.0,0000.09,0000.14,0000.07
2021-12-24 11:35:00,,0809.0,5.00,0.00,24.7,24.0,00.0,33.7,26.5,20.7,0000.0,0000.08,0000.28,0000.07
2021-12-24 11:36:00,,0809.0,5.01,0.00,24.7,24.0,00.0,33.7,26.5,20.4,0000.0,0000.10,0001.35,0000.07
2021-12-24 11:37:00,,0808.9,4.99,0.00,24.7,24.0,00.0,33.7,26.5,20.1,0000.0,0000.09,0001.34,0000.07
2021-12-24 11:38:00,,0808.9,5.00,0.00,24.7,24.1,00.0,33.7,26.5,20.1,0000.0,0000.11,0001.36,0000.07
2021-12-24 11:39:00,,0808.9,5.02,0.00,24.7,24.1,00.0,33.7,26.5,20.1,0000.0,0000.13,0001.44,0000.07
2021-12-24 11:40:00,,0808.9,4.99,0.00,24.8,24.1,00.0,33.7,26.6,20.2,0000.0,0000.13,0001.44,0000.06
2021-12-24 11:41:00,,0809.0,5.00,0.00,24.8,24.2,00.0,33.7,26.6,20.4,0000.0,0000.13,0001.44,0000.06
2021-12-24 11:42:00,,0808.9,4.99,0.00,24.8,24.2,00.0,33.7,26.6,20.5,0000.0,0000.13,0001.45,0000.06
2021-12-24 11:43:00,,0808.9,5.00,0.00,24.8,24.2,00.0,33.7,26.6,20.8,0000.0,0000.13,0001.44,0000.06
2021-12-24 11:44:00,,0808.9,5.01,0.00,24.8,24.2,00.0,33.7,26.7,20.9,0000.0,0000.14,0001.47,0000.06
2021-12-24 11:45:00,,0808.9,5.00,0.00,24.9,24.3,00.0,33.8,26.7,20.6,0000.0,0000.16,0001.50,0000.06
2021-12-24 11:46:00,,0808.9,4.98,0.00,24.9,24.3,00.0,33.8,26.7,20.5,0000.0,0000.17,0001.29,0000.06
2021-12-24 11:47:00,,0809.0,5.01,0.00,24.9,24.3,00.0,33.8,26.7,20.7,0000.0,0000.17,0000.35,0000.06
2021-12-24 11:48:00,,0809.1,4.99,0.00,24.9,24.3,00.0,33.8,26.8,20.9,0000.0,0000.18,0000.37,0000.07
2021-12-24 11:49:00,,0809.0,4.99,0.00,25.0,24.3,00.0,33.8,26.8,20.8,0000.0,0000.17,0000.35,0000.07
2021-12-24 11:50:00,,0809.0,5.00,0.00,25.0,24.3,00.0,33.8,26.8,20.9,0000.0,0000.15,0000.30,0000.07
2021-12-24 11:51:00,,0809.0,4.99,0.00,25.0,24.3,00.0,33.9,26.8,20.9,0000.0,0000.17,0000.34,0000.08
2021-12-24 11:52:00,,0809.0,4.99,0.00,25.0,24.4,00.0,33.9,26.8,20.8,0000.0,0000.17,0000.34,0000.08
2021-12-24 11:53:00,,0809.0,5.00,0.00,25.0,24.4,00.0,33.9,26.9,20.6,0000.0,0000.17,0000.34,0000.08
2021-12-24 11:54:00,,0809.0,5.01,0.00,25.0,24.4,00.0,33.9,26.9,20.5,0000.0,0000.18,0000.36,0000.08
2021-12-24 11:55:00,,0809.0,5.00,0.00,25.0,24.4,00.0,33.9,26.9,20.7,0000.0,0000.18,0000.38,0000.08
2021-12-24 11:56:00,,0809.1,4.99,0.00,25.1,24.4,00.0,33.9,26.9,21.0,0000.0,0000.24,0000.58,0000.08
2021-12-24 11:57:00,,0809.1,5.00,0.00,25.1,24.4,00.0,33.9,26.9,21.2,0000.0,0000.23,0000.57,0000.08
2021-12-24 11:58:00,,0809.1,5.00,0.00,25.1,24.4,00.0,33.9,26.9,21.3,0000.0,0000.22,0000.54,0000.08
2021-12-24 11:59:00,,0809.1,5.00,0.00,25.1,24.4,00.0,34.0,26.9,21.4,0000.0,0000.22,0000.53,0000.09
